contact:dominique.lefevre@mio.osupytheas.fr, maurice.libes@osupytheas.fr, didier.mallarino@osupytheas.fr
Project:EMSO http://www.emso-fr.org/EMSO-France
Depth: 2436.0 m
Title:EMSO Ligure Ouest : Data MII capteur AQUADOPP
Date,Latitude,Longitude,X_East,Y_North,Z_Up,Amplitude_X,Amplitude_Y,Amplitude_Z,Batterie,SoundSpeed,Heading,Pitch,Roll,Pressure,TIS,Speed,Direction
, degrees North, degrees East, m.s-1, m.s-1,m.s-1, 1, 1, 1, Volt, m.s-1, degree, degree, degree, dbar, degree_C, m.s-1, degree
2020-01-31T00:04:03,42.805,6.029,0.031,0.026,-0.008,100.0,118.0,98.0,13.4,1505.2,323.0,-0.7,1.8,2470.296,13.3,0.04,50.0
2020-01-31T00:07:03,42.805,6.029,0.005,0.035,-0.009,101.0,120.0,99.0,13.4,1505.3,326.6,-0.7,1.9,2470.287,13.31,0.035,8.1
2020-01-31T00:10:03,42.805,6.029,0.006,0.051,-0.01,100.0,119.0,98.0,13.4,1505.3,325.3,-0.7,1.8,2470.278,13.31,0.051,6.7
2020-01-31T00:13:03,42.805,6.029,-0.014,0.045,-0.022,101.0,120.0,98.0,13.4,1505.3,326.8,-0.7,1.8,2470.258,13.32,0.047,342.7
2020-01-31T00:16:03,42.805,6.029,0.025,0.039,-0.049,102.0,118.0,99.0,13.4,1505.3,325.7,-0.7,1.8,2470.272,13.32,0.046,32.7
2020-01-31T00:19:03,42.805,6.029,0.038,0.016,-0.031,100.0,119.0,99.0,13.4,1505.3,327.6,-0.7,1.8,2470.247,13.32,0.041,67.2
2020-01-31T00:22:03,42.805,6.029,0.05,0.022,0.009,101.0,118.0,98.0,13.4,1505.3,327.5,-0.7,1.8,2470.27,13.32,0.054,66.3
2020-01-31T00:25:03,42.805,6.029,0.014,0.023,-0.035,101.0,119.0,99.0,13.4,1505.3,324.3,-0.7,1.8,2470.25,13.32,0.026,31.3
2020-01-31T00:28:03,42.805,6.029,0.025,0.043,0.016,102.0,120.0,98.0,13.4,1505.3,323.5,-0.7,1.8,2470.248,13.32,0.049,30.2
2020-01-31T00:31:03,42.805,6.029,0.034,0.055,0.008,101.0,119.0,98.0,13.4,1505.3,326.3,-0.7,1.9,2470.231,13.32,0.064,31.7
2020-01-31T00:34:03,42.805,6.029,0.009,0.028,0.001,102.0,119.0,98.0,13.4,1505.3,323.7,-0.7,1.8,2470.242,13.32,0.029,17.8
2020-01-31T00:37:03,42.805,6.029,0.027,0.042,0.004,100.0,120.0,97.0,13.3,1505.3,327.6,-0.8,1.8,2470.293,13.32,0.049,32.7
2020-01-31T00:40:03,42.805,6.029,0.0,0.035,-0.033,100.0,121.0,97.0,13.3,1505.3,324.6,-0.7,1.8,2470.276,13.32,0.035,0.0
2020-01-31T00:43:03,42.805,6.029,0.036,0.05,-0.015,101.0,119.0,97.0,13.4,1505.3,325.5,-0.7,1.8,2470.265,13.32,0.061,35.8
2020-01-31T00:46:03,42.805,6.029,-0.011,0.03,-0.048,99.0,118.0,99.0,13.3,1505.3,327.8,-0.7,1.8,2470.233,13.32,0.031,339.9
2020-01-31T00:49:03,42.805,6.029,0.011,0.037,-0.014,99.0,118.0,99.0,13.3,1505.3,325.1,-0.7,1.8,2470.17,13.32,0.038,16.6
2020-01-31T00:52:03,42.805,6.029,-0.001,0.063,0.01,100.0,118.0,98.0,13.3,1505.3,325.7,-0.7,1.8,2470.233,13.32,0.063,359.1
2020-01-31T00:55:03,42.805,6.029,0.014,0.026,-0.035,101.0,119.0,97.0,13.3,1505.3,324.7,-0.7,1.8,2470.224,13.32,0.029,28.3
2020-01-31T00:58:03,42.805,6.029,0.02,0.008,-0.044,101.0,119.0,97.0,13.3,1505.3,323.5,-0.7,1.8,2470.225,13.32,0.021,68.2
2020-01-31T01:04:03,42.805,6.029,-0.007,0.036,-0.03,101.0,119.0,101.0,13.4,1505.2,325.3,-0.7,1.8,2470.283,13.3,0.036,349.0
2020-01-31T01:07:03,42.805,6.029,0.002,0.045,-0.017,101.0,121.0,100.0,13.4,1505.3,328.1,-0.7,1.9,2470.272,13.31,0.045,2.5
2020-01-31T01:10:03,42.805,6.029,0.003,0.04,-0.034,101.0,119.0,98.0,13.4,1505.3,326.1,-0.7,1.9,2470.193,13.32,0.04,4.3
2020-01-31T01:13:03,42.805,6.029,0.036,0.054,0.002,102.0,120.0,98.0,13.4,1505.3,327.6,-0.7,1.8,2470.239,13.32,0.064,33.7
2020-01-31T01:16:03,42.805,6.029,-0.008,0.022,-0.051,100.0,119.0,99.0,13.4,1505.3,323.4,-0.7,1.8,2470.234,13.32,0.023,340.0
2020-01-31T01:19:03,42.805,6.029,0.018,0.039,-0.014,101.0,119.0,98.0,13.4,1505.3,326.9,-0.7,1.8,2470.255,13.32,0.042,24.8
2020-01-31T01:22:03,42.805,6.029,0.016,0.049,-0.013,102.0,119.0,97.0,13.4,1505.3,328.2,-0.7,1.8,2470.251,13.32,0.051,18.1
2020-01-31T01:25:03,42.805,6.029,0.02,0.037,-0.022,99.0,121.0,96.0,13.4,1505.3,322.7,-0.7,1.8,2470.268,13.32,0.042,28.4
2020-01-31T01:28:03,42.805,6.029,0.025,0.043,-0.002,100.0,119.0,100.0,13.4,1505.3,324.8,-0.7,1.8,2470.175,13.32,0.049,30.2
2020-01-31T01:31:03,42.805,6.029,-0.008,0.034,-0.031,101.0,117.0,98.0,13.4,1505.3,325.8,-0.7,1.8,2470.228,13.32,0.034,346.8
2020-01-31T01:34:03,42.805,6.029,-0.009,0.03,-0.051,101.0,120.0,100.0,13.3,1505.3,326.4,-0.7,1.8,2470.246,13.32,0.031,343.3
2020-01-31T01:37:03,42.805,6.029,0.022,0.034,-0.051,100.0,119.0,101.0,13.4,1505.3,326.9,-0.7,1.8,2470.217,13.32,0.04,32.9
2020-01-31T01:40:03,42.805,6.029,-0.003,0.057,-0.022,100.0,120.0,100.0,13.4,1505.3,324.0,-0.7,1.8,2470.258,13.32,0.057,357.0
2020-01-31T01:43:03,42.805,6.029,-0.006,0.038,-0.008,100.0,118.0,98.0,13.4,1505.3,323.8,-0.7,1.8,2470.241,13.32,0.038,351.0
2020-01-31T01:46:03,42.805,6.029,0.009,0.025,-0.031,102.0,119.0,98.0,13.4,1505.3,325.9,-0.7,1.9,2470.197,13.32,0.026,19.8
2020-01-31T01:49:03,42.805,6.029,0.027,0.046,-0.021,100.0,119.0,98.0,13.3,1505.3,326.0,-0.7,1.8,2470.22,13.32,0.053,30.4
2020-01-31T01:52:03,42.805,6.029,0.0,0.032,-0.026,99.0,118.0,100.0,13.4,1505.3,323.3,-0.7,1.8,2470.201,13.32,0.032,0.0
2020-01-31T01:55:03,42.805,6.029,-0.001,0.039,-0.04,102.0,120.0,98.0,13.4,1505.3,324.8,-0.7,1.8,2470.213,13.32,0.039,358.5
2020-01-31T01:58:03,42.805,6.029,0.015,0.042,0.008,100.0,118.0,98.0,13.3,1505.3,325.8,-0.7,1.9,2470.225,13.32,0.044,19.6
2020-01-31T02:04:03,42.805,6.029,0.032,0.05,-0.015,100.0,118.0,98.0,13.4,1505.2,323.3,-0.7,1.8,2470.21,13.3,0.059,32.6
2020-01-31T02:07:03,42.805,6.029,0.01,0.017,-0.021,99.0,120.0,98.0,13.3,1505.3,327.7,-0.7,1.8,2470.213,13.31,0.019,30.5
2020-01-31T02:10:03,42.805,6.029,0.012,0.027,-0.048,101.0,120.0,97.0,13.4,1505.3,324.6,-0.7,1.8,2470.225,13.31,0.029,24.0
2020-01-31T02:13:03,42.805,6.029,0.012,0.053,-0.038,101.0,119.0,98.0,13.4,1505.3,323.5,-0.7,1.9,2470.27,13.32,0.054,12.8
2020-01-31T02:16:03,42.805,6.029,0.025,0.042,-0.027,100.0,121.0,98.0,13.3,1505.3,328.3,-0.7,1.8,2470.251,13.32,0.048,30.8
2020-01-31T02:19:03,42.805,6.029,-0.012,0.037,-0.051,100.0,120.0,98.0,13.4,1505.3,325.0,-0.7,1.8,2470.223,13.32,0.038,342.0
2020-01-31T02:22:03,42.805,6.029,-0.013,0.031,-0.056,100.0,119.0,97.0,13.3,1505.3,323.8,-0.7,1.9,2470.22,13.32,0.033,337.3
2020-01-31T02:25:03,42.805,6.029,-0.008,0.025,-0.027,99.0,119.0,99.0,13.3,1505.3,326.4,-0.7,1.8,2470.191,13.32,0.026,342.3
2020-01-31T02:28:03,42.805,6.029,0.025,0.047,-0.037,100.0,117.0,99.0,13.4,1505.3,325.9,-0.7,1.8,2470.199,13.32,0.053,28.0
2020-01-31T02:31:03,42.805,6.029,-0.02,0.021,-0.068,100.0,118.0,99.0,13.3,1505.3,325.3,-0.7,1.8,2470.179,13.32,0.028,316.4
2020-01-31T02:34:03,42.805,6.029,-0.014,0.048,-0.039,100.0,119.0,99.0,13.3,1505.3,325.9,-0.7,1.8,2470.229,13.33,0.05,343.7
2020-01-31T02:37:03,42.805,6.029,-0.008,0.028,-0.047,100.0,119.0,100.0,13.4,1505.3,325.1,-0.7,1.8,2470.232,13.32,0.029,344.1
2020-01-31T02:40:03,42.805,6.029,-0.019,0.036,-0.035,101.0,117.0,99.0,13.4,1505.3,324.5,-0.7,1.8,2470.193,13.32,0.04,332.2
2020-01-31T02:43:03,42.805,6.029,-0.022,0.052,-0.035,102.0,125.0,98.0,13.3,1505.3,323.7,-0.7,1.8,2470.216,13.32,0.056,337.1
2020-01-31T02:46:03,42.805,6.029,-0.014,0.017,-0.084,100.0,120.0,98.0,13.4,1505.3,325.4,-0.8,1.8,2470.185,13.32,0.022,320.5
2020-01-31T02:49:03,42.805,6.029,0.005,0.044,-0.008,100.0,121.0,97.0,13.4,1505.3,325.6,-0.7,1.9,2470.208,13.32,0.044,6.5
2020-01-31T02:52:03,42.805,6.029,0.039,0.051,-0.017,101.0,118.0,99.0,13.3,1505.3,325.9,-0.7,1.8,2470.208,13.32,0.064,37.4
2020-01-31T02:55:03,42.805,6.029,0.007,0.035,-0.048,100.0,120.0,98.0,13.3,1505.3,328.4,-0.7,1.8,2470.192,13.32,0.035,11.3
2020-01-31T02:58:03,42.805,6.029,0.002,0.032,-0.031,101.0,120.0,97.0,13.3,1505.3,324.5,-0.7,1.8,2470.208,13.32,0.032,3.6
2020-01-31T03:04:03,42.805,6.029,0.012,0.06,-0.002,101.0,121.0,99.0,13.3,1505.2,323.5,-0.7,1.8,2470.218,13.3,0.061,11.3
2020-01-31T03:07:03,42.805,6.029,0.042,0.027,-0.002,101.0,121.0,97.0,13.4,1505.3,323.0,-0.7,1.8,2470.2,13.31,0.049,57.3
2020-01-31T03:10:03,42.805,6.029,0.019,0.033,-0.008,100.0,122.0,97.0,13.3,1505.3,325.3,-0.7,1.9,2470.23,13.32,0.038,29.9
2020-01-31T03:13:03,42.805,6.029,-0.005,0.039,-0.039,99.0,121.0,99.0,13.4,1505.3,327.8,-0.7,1.8,2470.201,13.32,0.039,352.7
2020-01-31T03:16:03,42.805,6.029,0.013,0.046,-0.017,100.0,122.0,99.0,13.4,1505.3,325.0,-0.7,1.9,2470.194,13.32,0.047,15.8
2020-01-31T03:19:03,42.805,6.029,-0.004,0.035,-0.036,100.0,123.0,98.0,13.4,1505.3,325.0,-0.7,1.8,2470.194,13.32,0.035,353.5
2020-01-31T03:22:03,42.805,6.029,0.012,0.029,-0.024,100.0,119.0,99.0,13.4,1505.3,324.5,-0.7,1.8,2470.208,13.32,0.031,22.5
2020-01-31T03:25:03,42.805,6.029,0.0,0.022,-0.017,102.0,120.0,98.0,13.3,1505.3,324.6,-0.7,1.8,2470.179,13.32,0.022,0.0
2020-01-31T03:28:03,42.805,6.029,0.021,0.045,-0.007,102.0,121.0,100.0,13.4,1505.3,326.2,-0.7,1.9,2470.187,13.32,0.049,25.0
2020-01-31T03:31:03,42.805,6.029,-0.012,0.052,-0.029,101.0,120.0,98.0,13.4,1505.3,325.2,-0.7,1.8,2470.168,13.32,0.053,347.0
2020-01-31T03:34:03,42.805,6.029,-0.015,0.051,-0.032,99.0,120.0,99.0,13.4,1505.3,326.3,-0.7,1.8,2470.193,13.32,0.053,343.6
2020-01-31T03:37:03,42.805,6.029,-0.003,0.045,-0.026,101.0,124.0,97.0,13.4,1505.3,323.1,-0.7,1.8,2470.18,13.32,0.045,356.2
2020-01-31T03:40:03,42.805,6.029,0.016,0.061,-0.017,100.0,119.0,99.0,13.4,1505.3,324.8,-0.7,1.8,2470.179,13.32,0.063,14.7
2020-01-31T03:43:03,42.805,6.029,0.023,0.044,-0.024,100.0,119.0,98.0,13.4,1505.3,324.0,-0.7,1.8,2470.174,13.32,0.049,27.6
2020-01-31T03:46:03,42.805,6.029,0.019,0.017,-0.008,100.0,122.0,97.0,13.3,1505.3,326.9,-0.8,1.8,2470.166,13.32,0.025,48.2
2020-01-31T03:49:03,42.805,6.029,0.011,0.034,-0.051,100.0,121.0,99.0,13.3,1505.3,326.9,-0.7,1.8,2470.205,13.32,0.035,17.9
2020-01-31T03:52:03,42.805,6.029,0.017,0.037,-0.001,100.0,121.0,98.0,13.3,1505.3,327.9,-0.7,1.8,2470.217,13.32,0.04,24.7
2020-01-31T03:55:03,42.805,6.029,0.004,0.052,-0.041,100.0,120.0,99.0,13.4,1505.3,324.0,-0.7,1.9,2470.181,13.32,0.052,4.4
2020-01-31T03:58:03,42.805,6.029,0.016,0.042,-0.039,101.0,120.0,98.0,13.3,1505.3,325.0,-0.7,1.8,2470.147,13.32,0.044,20.9
2020-01-31T04:04:03,42.805,6.029,0.004,0.046,-0.024,102.0,120.0,97.0,13.3,1505.2,323.5,-0.8,1.8,2470.172,13.3,0.046,5.0
2020-01-31T04:07:03,42.805,6.029,-0.009,0.039,-0.047,100.0,121.0,98.0,13.4,1505.3,326.2,-0.7,1.8,2470.217,13.31,0.04,347.0
2020-01-31T04:10:03,42.805,6.029,0.011,0.071,-0.003,100.0,120.0,99.0,13.3,1505.3,323.8,-0.7,1.8,2470.189,13.31,0.071,8.8
2020-01-31T04:13:03,42.805,6.029,0.006,0.037,-0.001,101.0,122.0,98.0,13.4,1505.3,325.2,-0.7,1.8,2470.185,13.32,0.037,9.2
2020-01-31T04:16:03,42.805,6.029,0.007,0.031,-0.021,103.0,125.0,97.0,13.3,1505.3,325.8,-0.7,1.8,2470.157,13.32,0.031,12.7
2020-01-31T04:19:03,42.805,6.029,0.014,0.053,-0.018,101.0,121.0,98.0,13.3,1505.3,324.5,-0.7,1.8,2470.145,13.32,0.054,14.8
2020-01-31T04:22:03,42.805,6.029,0.014,0.059,0.002,100.0,123.0,98.0,13.3,1505.3,323.5,-0.7,1.8,2470.192,13.32,0.06,13.3
2020-01-31T04:25:03,42.805,6.029,0.019,0.036,0.002,99.0,121.0,99.0,13.4,1505.3,328.2,-0.7,1.9,2470.197,13.32,0.04,27.8
2020-01-31T04:28:03,42.805,6.029,-0.009,0.023,-0.086,101.0,123.0,98.0,13.3,1505.3,324.4,-0.7,1.8,2470.173,13.32,0.024,338.6
2020-01-31T04:31:03,42.805,6.029,0.029,0.044,-0.006,103.0,126.0,99.0,13.3,1505.3,325.3,-0.7,1.8,2470.2,13.32,0.052,33.4
2020-01-31T04:34:03,42.805,6.029,0.024,0.019,-0.037,100.0,122.0,100.0,13.4,1505.3,323.4,-0.7,1.8,2470.16,13.32,0.03,51.6
2020-01-31T04:37:03,42.805,6.029,0.008,0.025,-0.047,100.0,119.0,99.0,13.4,1505.3,328.4,-0.7,1.8,2470.195,13.32,0.026,17.7
2020-01-31T04:40:03,42.805,6.029,-0.02,0.072,-0.029,101.0,120.0,100.0,13.4,1505.3,324.6,-0.7,1.8,2470.129,13.32,0.074,344.5
2020-01-31T04:43:03,42.805,6.029,0.029,0.024,-0.025,100.0,121.0,98.0,13.4,1505.3,326.1,-0.7,1.8,2470.216,13.32,0.037,50.4
2020-01-31T04:46:03,42.805,6.029,0.009,0.055,-0.014,99.0,120.0,98.0,13.3,1505.3,323.7,-0.7,1.8,2470.201,13.32,0.055,9.3
2020-01-31T04:49:03,42.805,6.029,0.029,0.034,-0.005,100.0,121.0,97.0,13.3,1505.3,327.6,-0.7,1.8,2470.243,13.32,0.044,40.5
2020-01-31T04:52:03,42.805,6.029,0.026,0.05,-0.003,101.0,121.0,99.0,13.3,1505.3,326.3,-0.7,1.9,2470.164,13.32,0.056,27.5
2020-01-31T04:55:03,42.805,6.029,0.014,0.041,0.012,97.0,121.0,99.0,13.4,1505.3,324.0,-0.7,1.8,2470.188,13.32,0.043,18.9
2020-01-31T04:58:03,42.805,6.029,-0.034,0.035,-0.062,100.0,120.0,99.0,13.4,1505.3,325.4,-0.7,1.9,2470.19,13.32,0.048,315.8
2020-01-31T05:04:03,42.805,6.029,0.027,0.05,-0.026,99.0,120.0,98.0,13.4,1505.2,325.3,-0.7,1.8,2470.238,13.3,0.056,28.4
2020-01-31T05:07:03,42.805,6.029,0.018,0.034,-0.005,99.0,120.0,100.0,13.4,1505.3,326.9,-0.7,1.9,2470.205,13.31,0.038,27.9
2020-01-31T05:10:03,42.805,6.029,0.007,0.036,0.003,100.0,122.0,98.0,13.3,1505.3,327.9,-0.7,1.8,2470.209,13.31,0.036,11.0
2020-01-31T05:13:03,42.805,6.029,0.012,0.028,0.0,100.0,123.0,98.0,13.4,1505.3,326.4,-0.7,1.9,2470.171,13.32,0.03,23.2
2020-01-31T05:16:03,42.805,6.029,-0.001,0.034,-0.03,100.0,120.0,99.0,13.3,1505.3,328.0,-0.7,1.8,2470.212,13.32,0.034,358.3
2020-01-31T05:19:03,42.805,6.029,-0.007,0.061,-0.003,100.0,121.0,97.0,13.4,1505.3,328.0,-0.7,1.8,2470.212,13.32,0.061,353.5
2020-01-31T05:22:03,42.805,6.029,0.017,0.03,-0.044,100.0,120.0,98.0,13.4,1505.3,324.8,-0.7,1.8,2470.193,13.32,0.034,29.5
2020-01-31T05:25:03,42.805,6.029,0.014,0.035,-0.029,100.0,122.0,98.0,13.3,1505.3,328.2,-0.7,1.8,2470.193,13.32,0.037,21.8
2020-01-31T05:28:03,42.805,6.029,0.019,0.045,-0.014,100.0,122.0,98.0,13.4,1505.3,324.3,-0.7,1.8,2470.169,13.32,0.048,22.9
2020-01-31T05:31:03,42.805,6.029,0.014,0.041,-0.017,101.0,122.0,98.0,13.4,1505.3,325.9,-0.7,1.8,2470.228,13.32,0.043,18.9
2020-01-31T05:34:03,42.805,6.029,0.022,0.051,-0.022,101.0,120.0,99.0,13.3,1505.3,326.5,-0.7,1.8,2470.187,13.32,0.055,23.3
2020-01-31T05:37:03,42.805,6.029,0.01,0.042,-0.016,100.0,121.0,100.0,13.4,1505.3,326.0,-0.7,1.8,2470.21,13.32,0.043,13.4
2020-01-31T05:40:03,42.805,6.029,-0.011,0.031,-0.033,100.0,123.0,98.0,13.3,1505.3,323.5,-0.7,1.8,2470.159,13.32,0.032,340.5
2020-01-31T05:43:03,42.805,6.029,0.017,0.049,-0.026,100.0,120.0,98.0,13.4,1505.3,325.1,-0.7,1.9,2470.18,13.32,0.051,19.1
2020-01-31T05:46:03,42.805,6.029,-0.006,0.046,-0.037,101.0,121.0,98.0,13.3,1505.3,325.4,-0.7,1.8,2470.201,13.32,0.046,352.6
2020-01-31T05:49:03,42.805,6.029,0.017,0.05,-0.022,100.0,122.0,99.0,13.3,1505.3,323.6,-0.7,1.8,2470.171,13.32,0.052,18.8
2020-01-31T05:52:03,42.805,6.029,-0.03,0.051,-0.026,101.0,119.0,99.0,13.3,1505.3,327.7,-0.7,1.8,2470.19,13.32,0.059,329.5
2020-01-31T05:55:03,42.805,6.029,0.001,0.047,-0.045,100.0,122.0,98.0,13.3,1505.3,325.1,-0.7,1.8,2470.194,13.32,0.047,1.2
2020-01-31T05:58:03,42.805,6.029,0.017,0.034,0.0,100.0,125.0,98.0,13.4,1505.3,327.1,-0.7,1.9,2470.218,13.32,0.038,26.6
2020-01-31T06:04:03,42.805,6.029,0.017,0.059,-0.026,101.0,125.0,98.0,13.3,1505.2,323.5,-0.8,1.8,2470.218,13.3,0.061,16.1
2020-01-31T06:07:03,42.805,6.029,0.005,0.021,-0.057,101.0,127.0,96.0,13.4,1505.3,328.2,-0.7,1.8,2470.207,13.31,0.021,13.4
2020-01-31T06:10:03,42.805,6.029,0.008,0.031,-0.035,100.0,126.0,98.0,13.4,1505.3,324.6,-0.7,1.8,2470.188,13.31,0.032,14.5
2020-01-31T06:13:03,42.805,6.029,0.009,0.031,-0.015,101.0,123.0,99.0,13.4,1505.3,323.2,-0.7,1.8,2470.207,13.32,0.032,16.2
2020-01-31T06:16:03,42.805,6.029,0.006,0.02,0.002,100.0,120.0,99.0,13.3,1505.3,327.7,-0.7,1.8,2470.225,13.32,0.02,16.7
2020-01-31T06:19:03,42.805,6.029,0.013,0.045,-0.025,101.0,126.0,98.0,13.4,1505.3,324.5,-0.7,1.8,2470.185,13.32,0.046,16.1
2020-01-31T06:22:03,42.805,6.029,-0.002,0.021,-0.031,102.0,124.0,99.0,13.4,1505.3,323.0,-0.7,1.8,2470.209,13.32,0.021,354.6
2020-01-31T06:25:03,42.805,6.029,-0.013,0.041,-0.044,102.0,123.0,98.0,13.4,1505.3,328.6,-0.7,1.8,2470.2,13.32,0.043,342.4
2020-01-31T06:28:03,42.805,6.029,0.025,0.032,-0.003,101.0,120.0,99.0,13.4,1505.3,325.4,-0.7,1.8,2470.207,13.32,0.04,38.0
2020-01-31T06:31:03,42.805,6.029,0.014,0.044,-0.04,100.0,124.0,98.0,13.4,1505.3,327.1,-0.7,1.8,2470.218,13.32,0.046,17.6
2020-01-31T06:34:03,42.805,6.029,0.018,0.045,-0.012,99.0,121.0,98.0,13.4,1505.3,323.5,-0.7,1.9,2470.211,13.32,0.048,21.8
2020-01-31T06:37:03,42.805,6.029,0.027,0.009,0.004,100.0,126.0,98.0,13.4,1505.3,327.0,-0.7,1.8,2470.217,13.32,0.028,71.6
2020-01-31T06:40:03,42.805,6.029,0.0,0.031,-0.019,100.0,121.0,98.0,13.4,1505.3,324.5,-0.7,1.8,2470.226,13.32,0.03,0.0
2020-01-31T06:43:03,42.805,6.029,0.021,0.043,0.011,100.0,120.0,99.0,13.4,1505.3,323.5,-0.7,1.8,2470.177,13.32,0.047,26.0
2020-01-31T06:46:03,42.805,6.029,0.001,0.035,-0.067,100.0,122.0,97.0,13.3,1505.3,326.1,-0.7,1.8,2470.236,13.32,0.035,1.6
2020-01-31T06:49:03,42.805,6.029,0.004,0.032,-0.035,100.0,122.0,98.0,13.3,1505.3,325.5,-0.7,1.8,2470.233,13.32,0.032,7.1
2020-01-31T06:52:03,42.805,6.029,0.014,0.03,0.001,102.0,121.0,99.0,13.4,1505.3,326.9,-0.7,1.9,2470.159,13.32,0.033,25.0
2020-01-31T06:55:03,42.805,6.029,0.014,0.045,-0.002,99.0,124.0,99.0,13.4,1505.3,325.1,-0.7,1.9,2470.191,13.32,0.047,17.3
2020-01-31T06:58:03,42.805,6.029,0.013,0.041,-0.007,99.0,123.0,99.0,13.4,1505.3,327.3,-0.7,1.8,2470.221,13.32,0.043,17.6
2020-01-31T07:04:03,42.805,6.029,0.022,0.04,0.011,100.0,121.0,98.0,13.4,1505.2,327.2,-0.7,1.8,2470.284,13.3,0.045,28.8
2020-01-31T07:07:03,42.805,6.029,0.016,0.025,-0.019,102.0,124.0,100.0,13.4,1505.3,326.9,-0.7,1.8,2470.213,13.31,0.029,32.6
2020-01-31T07:10:03,42.805,6.029,0.014,0.039,-0.024,101.0,121.0,99.0,13.4,1505.3,324.6,-0.7,1.8,2470.238,13.32,0.041,19.7
2020-01-31T07:13:03,42.805,6.029,-0.002,0.021,-0.045,100.0,123.0,99.0,13.4,1505.3,328.1,-0.7,1.8,2470.257,13.32,0.021,354.6
2020-01-31T07:16:03,42.805,6.029,-0.005,0.039,-0.017,101.0,120.0,98.0,13.4,1505.3,326.4,-0.7,1.8,2470.219,13.32,0.039,352.7
2020-01-31T07:19:03,42.805,6.029,0.004,0.046,-0.022,101.0,120.0,98.0,13.4,1505.3,325.4,-0.7,1.8,2470.232,13.32,0.046,5.0
2020-01-31T07:22:03,42.805,6.029,0.023,0.05,-0.009,101.0,122.0,98.0,13.4,1505.3,325.9,-0.7,1.8,2470.274,13.32,0.055,24.7
2020-01-31T07:25:03,42.805,6.029,0.015,0.016,-0.024,101.0,123.0,99.0,13.4,1505.3,328.2,-0.7,1.8,2470.244,13.32,0.021,43.1
2020-01-31T07:28:03,42.805,6.029,0.021,0.029,-0.032,100.0,123.0,99.0,13.4,1505.3,325.1,-0.7,1.8,2470.22,13.32,0.035,35.9
2020-01-31T07:31:03,42.805,6.029,0.009,0.058,-0.01,101.0,123.0,98.0,13.3,1505.3,326.4,-0.7,1.8,2470.3,13.32,0.058,8.8
2020-01-31T07:34:03,42.805,6.029,0.0,0.014,-0.028,101.0,121.0,99.0,13.4,1505.3,327.7,-0.7,1.8,2470.253,13.32,0.014,0.0
2020-01-31T07:37:03,42.805,6.029,0.009,0.026,-0.043,100.0,119.0,99.0,13.4,1505.3,324.1,-0.7,1.8,2470.264,13.32,0.027,19.1
2020-01-31T07:40:03,42.805,6.029,0.0,0.049,-0.016,101.0,120.0,98.0,13.4,1505.3,327.4,-0.7,1.8,2470.242,13.32,0.049,0.0
2020-01-31T07:43:03,42.805,6.029,0.02,0.016,-0.011,101.0,123.0,98.0,13.4,1505.3,324.8,-0.7,1.8,2470.268,13.32,0.025,51.3
2020-01-31T07:49:03,42.805,6.029,0.003,0.033,-0.054,100.0,125.0,98.0,13.4,1505.2,327.1,-0.8,1.8,2470.307,13.3,0.033,5.2
2020-01-31T07:52:03,42.805,6.029,0.015,0.032,0.01,101.0,122.0,99.0,13.4,1505.3,324.5,-0.7,1.8,2470.273,13.31,0.035,25.1
2020-01-31T07:55:03,42.805,6.029,-0.002,0.027,-0.091,101.0,122.0,98.0,13.3,1505.3,325.8,-0.7,1.8,2470.251,13.31,0.027,355.8
2020-01-31T07:58:03,42.805,6.029,-0.021,0.061,-0.04,100.0,124.0,98.0,13.4,1505.3,326.7,-0.7,1.8,2470.296,13.32,0.064,341.0
2020-01-31T08:04:03,42.805,6.029,0.001,0.051,-0.034,100.0,128.0,98.0,13.4,1505.2,325.0,-0.8,1.8,2470.295,13.3,0.051,1.1
2020-01-31T08:07:03,42.805,6.029,0.045,0.04,0.018,99.0,126.0,97.0,13.3,1505.3,327.9,-0.7,1.8,2470.284,13.31,0.06,48.4
2020-01-31T08:10:03,42.805,6.029,-0.004,0.054,-0.037,100.0,122.0,99.0,13.4,1505.3,327.7,-0.7,1.8,2470.277,13.31,0.054,355.8
2020-01-31T08:13:03,42.805,6.029,0.011,0.03,-0.021,100.0,123.0,99.0,13.4,1505.3,325.4,-0.7,1.8,2470.284,13.32,0.031,20.1
2020-01-31T08:16:03,42.805,6.029,-0.003,0.031,-0.031,100.0,120.0,99.0,13.3,1505.3,323.3,-0.7,1.8,2470.294,13.32,0.031,354.5
2020-01-31T08:19:03,42.805,6.029,0.0,0.037,-0.024,101.0,121.0,97.0,13.3,1505.3,326.1,-0.7,1.8,2470.328,13.32,0.037,0.0
2020-01-31T08:22:03,42.805,6.029,-0.014,0.027,-0.039,102.0,124.0,98.0,13.4,1505.3,326.6,-0.7,1.8,2470.299,13.32,0.03,332.6
2020-01-31T08:25:03,42.805,6.029,0.029,0.036,-0.038,101.0,124.0,98.0,13.4,1505.3,323.0,-0.7,1.9,2470.268,13.32,0.046,38.9
2020-01-31T08:28:03,42.805,6.029,-0.002,0.035,-0.038,101.0,122.0,98.0,13.4,1505.3,328.2,-0.7,1.9,2470.256,13.32,0.035,356.7
2020-01-31T08:31:03,42.805,6.029,0.0,0.036,-0.049,101.0,125.0,97.0,13.4,1505.3,324.9,-0.7,1.9,2470.305,13.32,0.036,0.0
2020-01-31T08:34:03,42.805,6.029,0.036,0.03,0.007,99.0,123.0,100.0,13.3,1505.3,323.6,-0.7,1.8,2470.284,13.32,0.046,50.2
2020-01-31T08:37:03,42.805,6.029,-0.006,0.023,-0.045,101.0,122.0,99.0,13.3,1505.3,328.0,-0.7,1.8,2470.313,13.32,0.023,345.4
2020-01-31T08:40:03,42.805,6.029,0.022,0.031,-0.012,101.0,124.0,99.0,13.3,1505.3,325.4,-0.7,1.8,2470.254,13.32,0.038,35.4
2020-01-31T08:43:03,42.805,6.029,0.003,0.036,-0.049,99.0,126.0,100.0,13.3,1505.3,323.7,-0.7,1.8,2470.342,13.32,0.036,4.8
2020-01-31T08:46:03,42.805,6.029,0.022,0.039,-0.01,99.0,125.0,98.0,13.4,1505.3,324.1,-0.7,1.8,2470.281,13.32,0.044,29.4
2020-01-31T08:49:03,42.805,6.029,-0.004,0.049,-0.064,100.0,125.0,99.0,13.4,1505.3,325.7,-0.7,1.8,2470.315,13.32,0.049,355.3
2020-01-31T08:52:03,42.805,6.029,0.001,0.045,-0.071,100.0,128.0,99.0,13.4,1505.3,323.5,-0.7,1.8,2470.312,13.32,0.045,1.3
2020-01-31T08:55:03,42.805,6.029,0.011,0.032,-0.057,100.0,125.0,99.0,13.3,1505.3,324.6,-0.7,1.8,2470.276,13.32,0.033,19.0
2020-01-31T08:58:03,42.805,6.029,0.028,0.012,-0.01,102.0,125.0,98.0,13.4,1505.3,323.0,-0.7,1.8,2470.329,13.32,0.03,66.8
2020-01-31T09:04:03,42.805,6.029,0.021,0.021,-0.039,101.0,121.0,100.0,13.4,1505.2,324.6,-0.8,1.8,2470.317,13.3,0.029,45.0
2020-01-31T09:07:03,42.805,6.029,0.028,0.021,-0.031,101.0,121.0,98.0,13.4,1505.3,327.8,-0.7,1.8,2470.357,13.31,0.035,53.1
2020-01-31T09:10:03,42.805,6.029,-0.009,0.03,-0.036,100.0,126.0,98.0,13.4,1505.3,327.0,-0.7,1.8,2470.356,13.31,0.031,343.3
2020-01-31T09:13:03,42.805,6.029,0.042,0.012,-0.014,102.0,120.0,99.0,13.4,1505.3,327.8,-0.7,1.8,2470.345,13.32,0.043,74.1
2020-01-31T09:16:03,42.805,6.029,0.02,0.021,-0.037,100.0,121.0,98.0,13.3,1505.3,326.0,-0.7,1.8,2470.365,13.32,0.028,43.6
2020-01-31T09:19:03,42.805,6.029,-0.006,0.023,-0.079,100.0,124.0,98.0,13.3,1505.3,325.2,-0.7,1.8,2470.321,13.32,0.023,345.4
2020-01-31T09:22:03,42.805,6.029,0.002,0.04,-0.033,99.0,125.0,99.0,13.3,1505.3,323.0,-0.7,1.8,2470.344,13.32,0.04,2.9
2020-01-31T09:25:03,42.805,6.029,0.005,0.036,-0.01,99.0,124.0,99.0,13.4,1505.3,326.4,-0.7,1.8,2470.344,13.32,0.036,7.9
2020-01-31T09:28:03,42.805,6.029,-0.013,0.036,-0.05,98.0,123.0,98.0,13.4,1505.3,325.2,-0.7,1.9,2470.345,13.32,0.038,340.1
2020-01-31T09:31:03,42.805,6.029,0.009,0.024,-0.06,99.0,126.0,100.0,13.4,1505.3,323.9,-0.7,1.8,2470.354,13.32,0.025,20.6
2020-01-31T09:34:03,42.805,6.029,0.012,0.021,-0.065,100.0,123.0,99.0,13.3,1505.3,326.0,-0.7,1.8,2470.349,13.32,0.024,29.7
2020-01-31T09:37:03,42.805,6.029,0.015,0.052,-0.024,102.0,122.0,98.0,13.3,1505.3,328.6,-0.7,1.8,2470.329,13.32,0.054,16.1
2020-01-31T09:40:03,42.805,6.029,0.015,0.024,-0.05,99.0,123.0,98.0,13.3,1505.3,323.3,-0.7,1.8,2470.355,13.32,0.028,32.0
2020-01-31T09:43:03,42.805,6.029,0.054,0.018,-0.037,101.0,121.0,100.0,13.3,1505.3,325.2,-0.7,1.8,2470.303,13.32,0.056,71.6
2020-01-31T09:46:03,42.805,6.029,0.039,0.038,0.008,101.0,120.0,99.0,13.3,1505.3,324.7,-0.7,1.8,2470.346,13.32,0.054,45.7
2020-01-31T09:49:03,42.805,6.029,0.009,0.026,-0.059,99.0,118.0,99.0,13.4,1505.3,327.9,-0.7,1.9,2470.33,13.32,0.027,19.1
2020-01-31T09:52:03,42.805,6.029,0.007,0.017,-0.05,101.0,121.0,98.0,13.4,1505.3,323.1,-0.7,1.9,2470.317,13.32,0.018,22.4
2020-01-31T09:55:03,42.805,6.029,0.02,0.027,-0.016,101.0,119.0,98.0,13.3,1505.3,326.6,-0.7,1.8,2470.346,13.32,0.033,36.5
2020-01-31T09:58:03,42.805,6.029,0.0,0.035,-0.034,99.0,121.0,99.0,13.3,1505.3,325.1,-0.7,1.8,2470.338,13.32,0.035,0.0
2020-01-31T10:04:03,42.805,6.029,0.021,0.03,-0.01,100.0,122.0,99.0,13.4,1505.2,326.4,-0.7,1.8,2470.396,13.3,0.036,35.0
2020-01-31T10:07:03,42.805,6.029,0.025,0.021,-0.008,101.0,118.0,98.0,13.3,1505.3,326.2,-0.8,1.8,2470.389,13.31,0.032,50.0
2020-01-31T10:10:03,42.805,6.029,0.048,0.029,0.0,101.0,122.0,100.0,13.3,1505.3,327.0,-0.7,1.8,2470.36,13.31,0.056,58.9
2020-01-31T10:13:03,42.805,6.029,-0.015,0.031,-0.029,102.0,121.0,98.0,13.4,1505.3,326.4,-0.7,1.8,2470.348,13.32,0.034,334.2